Weather History for West Bend, WI

Change the Weather History Date:

Thursday, March 21, 2013

  Actual Average Record
Temperature  
Mean Temperature 22 °F -  
Max Temperature 28 °F 42 °F 91 °F (1946)
Min Temperature 17 °F 26 °F 0 °F (1965)
Degree Days  
Heating Degree Days 42    
Moisture  
Dew Point 10 °F    
Average Humidity 58    
Maximum Humidity 73    
Minimum Humidity 47    
Precipitation  
Precipitation 0.00 in - - ()
Sea Level Pressure  
Sea Level Pressure 29.99 in    
Wind  
Wind Speed 10 mph (WNW)    
Max Wind Speed 14 mph    
Max Gust Speed 21 mph    
Visibility 10 miles    
Events      
Averages and records for this station are not official NWS values.
T = Trace of Precipitation, MM = Missing Value Source: NWS Daily Summary

Daily Weather History Graph

Daily Weather History Graph

Search for Another Location

Airport:

Trip Planner

Search our weather history database for the weather conditions in past years. The results will help you decide how hot, cold, wet, or windy it might be!

Date:

Astronomy

Mar. 21, 2013 Rise Set
Actual Time 6:53 AM CDT 7:06 PM CDT
Civil Twilight 6:24 AM CDT 7:34 PM CDT
Nautical Twilight 5:51 AM CDT 8:08 PM CDT
Astronomical Twilight 5:17 AM CDT 8:42 PM CDT
Moon 1:27 PM CDT (3/21) 3:23 AM CDT (3/21)
Length of Visible Light 13h 09m
Length of Day
12h 12m
Waxing Gibbous, 69% of the Moon is Illuminated
Mar 21
Waxing Gibbous
Mar 27
Full
Apr 2
Last Quarter
Apr 10
New
Apr 18
First Quarter

Hourly Weather History & Observations

Time (CDT) Temp. Windchill Dew Point Humidity Pressure Visibility Wind Dir Wind Speed Gust Speed Precip Events Conditions
8:55 AM 17.6 °F 6.4 °F 5.0 °F 58% 29.97 in 10.0 mi NW 9.2 mph - N/A   Clear
9:15 AM 17.6 °F 5.7 °F 6.8 °F 63% 29.98 in 10.0 mi NW 10.4 mph - N/A   Clear
9:35 AM 19.4 °F 7.2 °F 8.6 °F 63% 29.99 in 10.0 mi NW 11.5 mph - N/A   Clear
9:55 AM 19.4 °F 7.9 °F 8.6 °F 63% 29.99 in 10.0 mi WNW 10.4 mph - N/A   Clear
10:15 AM 19.4 °F 6.6 °F 8.6 °F 63% 30.00 in 10.0 mi WNW 12.7 mph - N/A   Clear
10:35 AM 21.2 °F 9.5 °F 8.6 °F 58% 30.00 in 10.0 mi NW 11.5 mph - N/A   Clear
10:55 AM 21.2 °F 10.1 °F 8.6 °F 58% 30.00 in 10.0 mi NW 10.4 mph 16.1 mph N/A   Clear
11:15 AM 21.2 °F 8.9 °F 8.6 °F 58% 30.00 in 10.0 mi WNW 12.7 mph 16.1 mph N/A   Clear
11:35 AM 21.2 °F 8.3 °F 10.4 °F 63% 30.01 in 10.0 mi WNW 13.8 mph - N/A   Clear
11:55 AM 23.0 °F 12.4 °F 10.4 °F 59% 30.01 in 10.0 mi NW 10.4 mph - N/A   Clear
12:15 PM 23.0 °F 11.1 °F 10.4 °F 59% 30.01 in 10.0 mi NW 12.7 mph - N/A   Clear
12:35 PM 23.0 °F 14.7 °F 10.4 °F 59% 30.01 in 10.0 mi NW 6.9 mph - N/A   Clear
1:15 PM 24.8 °F 16.1 °F 10.4 °F 54% 30.00 in 10.0 mi NW 8.1 mph - N/A   Clear
1:35 PM 26.6 °F 15.7 °F 10.4 °F 51% 30.00 in 10.0 mi NW 12.7 mph 16.1 mph N/A   Clear
1:55 PM 26.6 °F 15.7 °F 12.2 °F 55% 29.99 in 10.0 mi WNW 12.7 mph 17.3 mph N/A   Clear
2:15 PM 26.6 °F 16.2 °F 12.2 °F 55% 29.99 in 10.0 mi WNW 11.5 mph - N/A   Clear
2:35 PM 26.6 °F 15.2 °F 12.2 °F 55% 29.99 in 10.0 mi NW 13.8 mph - N/A   Clear
2:55 PM 26.6 °F 16.2 °F 12.2 °F 55% 29.98 in 10.0 mi WNW 11.5 mph 18.4 mph N/A   Clear
3:15 PM 28.4 °F 18.0 °F 12.2 °F 51% 29.97 in 10.0 mi WNW 12.7 mph 17.3 mph N/A   Clear
3:55 PM 28.4 °F 18.0 °F 12.2 °F 51% 29.97 in 10.0 mi West 12.7 mph 20.7 mph N/A   Clear
4:15 PM 28.4 °F 17.5 °F 12.2 °F 51% 29.97 in 10.0 mi West 13.8 mph 17.3 mph N/A   Clear
4:35 PM 28.4 °F 18.5 °F 12.2 °F 51% 29.98 in 10.0 mi West 11.5 mph 17.3 mph N/A   Clear
4:55 PM 26.6 °F 15.7 °F 10.4 °F 51% 29.97 in 10.0 mi WNW 12.7 mph - N/A   Clear
5:15 PM 26.6 °F 16.8 °F 10.4 °F 51% 29.98 in 10.0 mi West 10.4 mph - N/A   Clear
5:35 PM 26.6 °F 16.2 °F 10.4 °F 51% 29.98 in 10.0 mi West 11.5 mph - N/A   Clear
5:55 PM 26.6 °F 18.2 °F 10.4 °F 51% 29.98 in 10.0 mi WNW 8.1 mph - N/A   Clear
6:15 PM 26.6 °F 16.8 °F 10.4 °F 51% 29.98 in 10.0 mi West 10.4 mph - N/A   Clear
6:35 PM 26.6 °F 17.5 °F 8.6 °F 47% 29.98 in 10.0 mi WNW 9.2 mph - N/A   Clear
6:55 PM 26.6 °F 19.1 °F 8.6 °F 47% 29.98 in 10.0 mi WNW 6.9 mph - N/A   Clear
7:15 PM 24.8 °F 19.1 °F 8.6 °F 50% 29.98 in 10.0 mi WNW 4.6 mph - N/A   Clear
7:35 PM 24.8 °F 19.1 °F 8.6 °F 50% 29.98 in 10.0 mi West 4.6 mph - N/A   Clear
7:55 PM 24.8 °F 20.5 °F 8.6 °F 50% 29.98 in 10.0 mi West 3.5 mph - N/A   Clear
8:15 PM 23.0 °F 18.4 °F 10.4 °F 59% 29.98 in 10.0 mi WSW 3.5 mph - N/A   Clear
8:35 PM 23.0 °F 18.4 °F 8.6 °F 54% 29.99 in 10.0 mi West 3.5 mph - N/A   Clear
8:55 PM 21.2 °F 16.4 °F 10.4 °F 63% 29.99 in 10.0 mi WSW 3.5 mph - N/A   Clear
9:15 PM 21.2 °F 16.4 °F 10.4 °F 63% 29.99 in 10.0 mi WSW 3.5 mph - N/A   Clear
9:35 PM 17.6 °F 12.3 °F 10.4 °F 73% 30.00 in 10.0 mi WSW 3.5 mph - N/A   Clear
10:15 PM 17.6 °F 12.3 °F 10.4 °F 73% 30.00 in 10.0 mi WSW 3.5 mph - N/A   Clear
10:35 PM 17.6 °F 12.3 °F 10.4 °F 73% 30.00 in 10.0 mi WSW 3.5 mph - N/A   Clear
10:55 PM 17.6 °F 12.3 °F 10.4 °F 73% 30.00 in 10.0 mi WSW 3.5 mph - N/A   Clear
11:15 PM 19.4 °F 14.3 °F 10.4 °F 68% 30.00 in 10.0 mi West 3.5 mph - N/A   Clear
11:35 PM 19.4 °F 14.3 °F 8.6 °F 63% 30.00 in 10.0 mi West 3.5 mph - N/A   Clear
11:55 PM 17.6 °F - 8.6 °F 68% 30.00 in 10.0 mi Calm Calm - N/A   Clear